Skip Page Navigation
NASA JPL Caltech
NASA Logo - Jet Propulsion Laboratory + View the NASA Portal
+ Center for Near-Earth Object Studies
JPL Home Earth Solar System Stars & Galaxies Technology
JPL Solar System Dynamics
BODIES ORBITS EPHEMERIDES TOOLS PHYSICAL DATA DISCOVERY FAQ SITE MAP
JPL Small-Body Database Browser
Search: [ help ]  
357584 (2004 TS347)
Classification: Main-belt Asteroid          SPK-ID: 2357584
Ephemeris | Orbit Diagram | Orbital Elements | Mission Design | Physical Parameters | Discovery Circumstances ]

[ show orbit diagram ]
Orbital Elements at Epoch 2459000.5 (2020-May-31.0) TDB
Reference: JPL 13 (heliocentric ecliptic J2000)
 Element Value Uncertainty (1-sigma)   Units 
e .06044043944856312 8.1706e-08  
a 2.365108798442063 4.0815e-08 au
q 2.222160583320562 1.987e-07 au
i 24.2229615262102 1.0435e-05 deg
node 247.4772526727617 1.558e-05 deg
peri 78.20982388620041 9.3617e-05 deg
M 179.2478863462186 8.9902e-05 deg
tp 2458339.004864338377
(2018-Aug-08.50486434)
0.00033646 TDB
period 1328.541461170809
3.64
3.439e-05
9.415e-08
d
yr
n .2709738540509992 7.0143e-09 deg/d
Q 2.508057013563565 4.3281e-08 au
  Orbit Determination Parameters
   # obs. used (total)      244  
   data-arc span      5139 days (14.07 yr)  
   first obs. used      2004-10-15  
   last obs. used      2018-11-10  
   planetary ephem.      DE431  
   SB-pert. ephem.      SB431-N16  
   condition code      0  
   norm. resid. RMS      .4848  
   source      ORB  
   producer      Otto Matic  
   solution date      2019-Jul-13 19:25:19  

Additional Information
 Earth MOID = 1.28536 au 
 Jupiter MOID = 2.66423 au 
 T_jup = 3.427 
[ show covariance matrix ]

Ephemeris | Orbit Diagram | Orbital Elements | Mission Design | Physical Parameters | Discovery Circumstances ]

Physical Parameter Table
Parameter Symbol Value Units Sigma Reference Notes
absolute magnitude H 16.0   n/a MPO450330  
diameter diameter 3.592 km 0.155 urn:nasa:pds:neowise_diameters_albedos::2.0[mainbelt] (http://adsabs.harvard.edu/abs/2011ApJ...741...68M)  
geometric albedo albedo 0.077   0.016 urn:nasa:pds:neowise_diameters_albedos::2.0[mainbelt] (http://adsabs.harvard.edu/abs/2011ApJ...741...68M)  

357584 (2004 TS347)          Discovered 2004-Oct-15 by LINEAR at Socorro
Reference: 20130327/Numbers.arcLast Updated: 2013-03-29
Ephemeris | Orbit Diagram | Orbital Elements | Mission Design | Physical Parameters | Discovery Circumstances ]
ABOUT SSD CREDITS/AWARDS PRIVACY/COPYRIGHT GLOSSARY LINKS
FirstGov 2020-Aug-06 07:24 UT
(server date/time)  
NASA Home Page
Site Manager:   Ryan S. Park
Webmaster  Alan B. Chamberlin